Tracking 19224 objects as of 23-Jul-2018
HD Live streaming from Space Station
objects crossing your sky now

OPS 3148

Track OPS 3148 now!
OPS 3148 is classified as:


NORAD ID: 3889
Int'l Code: 1969-036A
Perigee: 31,985.0 km
Apogee: 39,548.3 km
Inclination: 7.8 °
Period: 1,434.7 minutes
Semi major axis: 42137 km
RCS: Unknown
Launch date: April 13, 1969
Source: United States (US)
Launch site: AIR FORCE EASTERN TEST RANGE (AFETR)
aabbcc
Your satellite tracking list
Your tracking list is empty




NASA's NSSDC Master Catalog

Two Line Element Set (TLE):
1 03889U 69036A   18190.88900679 0.00000000  00000-0  00000-0 0    01
2 03889   7.8392  67.6362 0897449 113.0789 256.6265  1.00368433    09
Source of the keplerian elements: McCants